Погода в Шитхале

Россия / Кабардино-Балкарская Республика     43°33′12″N   43°47′50″E
темп.,
°C
ветер,
м/с
пор.,
м/с
влажн.,
%
обл.,
%
осадки,
мм/ч
давл.,
гПа
погр.,
м
16 июня, ср
ср1600:00+20зюз118148 0.0 101015
03:00+18зюз32811 0.0 101023
06:00+20ю01800 0.0 101057
09:00+23всв33740 0.0 1009572
12:00+26всв336242 0.0 10091296
15:00+27всв235972 0.0 10081419
18:00+25зюз117183 0.1 1007245
21:00+21юз228110 0.1 100722
17 июня, чт
чт1700:00+18зсз22892 0.0 100631
03:00+17зсз22870 0.0 100535
06:00+18сз23830 0.0 1005117
09:00+24ссз48690 0.0 1007773
12:00+25ссз776882 0.0 10091231
15:00+24сз6107198 0.1 1010963
18:00+22сз497789 0.1 1013505
21:00+20ююв1179100 0.1 101433
18 июня, пт
пт1800:00+19св018379 0.0 101517
03:00+18з0185100 0.0 101780
06:00+18ю3488100 0.1 1017155
09:00+19ююз1284100 0.1 1018119
12:00+23ссв32678 0.0 1017877
15:00+25ссв216124 0.1 10161162
18:00+24св227264 0.3 1017420
21:00+20ююз118130 0.4 101811
19 июня, сб
сб1900:00+18юз11876 0.0 101712
03:00+18юз22880 0.0 101816
06:00+20ю11830 0.0 101860
09:00+24в33670 0.0 1018794
12:00+26в346497 0.1 10171454
15:00+25ююв237591 0.1 1016232
18:00+26ююз247388 0.0 1016304
21:00+21св237411 0.1 101751
20 июня, вс
вс2000:00+17зсз22770 0.0 101721
03:00+16сз22860 0.0 101624
06:00+17сз22830 0.0 1016109
09:00+22ссв21730 0.0 1015426
12:00+26всв23640 0.0 1013872
15:00+28юв23580 0.0 10121005
18:00+28зюз22680 0.0 1011189
21:00+21сз33750 0.0 101332